Location: Hylvaty SDH
(49.9612°N, 16.4057°E)
Time: 20:02:16
(UTC+02:00)

Transit 4A - Pass Details

Date: 14 August 2020
Orbit: 862 x 982 km, 66.8° (Epoch: 28 September)

Event Time Altitude Azimuth Distance (km) Brightness Sun altitude
Rises 08:05:20 0° 169° (S) 3,484 11.1 21.5°
Reaches altitude 10° 08:08:20 10° 154° (SSE) 2,569 10.7 21.9°
Maximum altitude 08:12:45 22° 106° (ESE) 1,892 11.9 22.6°
Drops below altitude 10° 08:17:16 10° 58° (ENE) 2,644 11.2 23.4°
Sets 08:20:23 0° 44° (NE) 3,615 11.5 23.9°
